User: anonymous   Login
Location: NJAA Observatory
(40.6819°N, 74.8979°W)
Time: 22:23:05
(UTC-04:00)
Language:

Iridium 84 - Orbit

View from above orbital plane
View from above orbital plane
View from above satellite
View from above satellite

Ground track
Ground track

The orbit data is extracted from the following two-line orbital elements,

1 25530U 98066D   16206.37240009  .00000200  00000-0  64433-4 0  9990
2 25530  86.3985 127.0449 0002266  85.1933 274.9521 14.34215098930018
Epoch (UTC): 24 July 2016 08:56:15
Eccentricity: 0.0002266
inclination: 86.3985°
perigee height: 776 km
apogee height: 779 km
right ascension of ascending node: 127.0449°
argument of perigee: 85.1933°
revolutions per day: 14.34215098
mean anomaly at epoch: 274.9521°
orbit number at epoch: 93001

The dashed part of the orbit path shows where the satellite is in the earth's shadow,  

DLR